Location: Henham
(51.9333°N, 0.2500°E)
Time: 15:22:44
(UTC+00:00)

BREEZE-M DEB (TANK) - Pass Details

Date: 23 October 2019
Orbit: 306 x 13124 km, 49.6° (Epoch: 21 November)

Event Time Altitude Azimuth Distance (km) Brightness Sun altitude
Rises 18:43:04 0° 239° (WSW) 3,634 7.9 -18.2°
Reaches altitude 10° 18:46:38 10° 230° (SW) 1,877 6.1 -18.8°
Enters shadow 18:49:23 29° 184° (S) 747 3.4 -19.2°
